Location: Lake Almanor
(40.2485°N, 121.1442°W)
Time: 10:47:20
(UTC-08:00)

STARLINK-1080 - Pass Details

Date: 02 February 2020
Orbit: 348 x 351 km, 53.0° (Epoch: 18 February)

Event Time Altitude Azimuth Distance (km) Brightness Sun altitude
Rises 19:03:16 0° 294° (WNW) 2,161 7.7 -19.2°
Reaches altitude 10° 19:05:44 10° 273° (W) 1,314 6.8 -19.6°
Maximum altitude 19:07:43 17° 230° (SW) 993 5.6 -20.0°
Drops below altitude 10° 19:09:41 10° 187° (S) 1,308 5.7 -20.4°
Enters shadow 19:10:04 - 182° (S) 1,421 5.8 -20.5°
